• Join FlightAware (Why Join?)
  • Login
  • US Flag 
10:22PM EDT


 

Airport Tracker/Info


-or-


 

Live Flight TrackerFlight Track Log ✈ N762NC ✈ 20-Aug-2013 ✈ KVPS - KATL

Flight Track Log - Related Links

Times and Time Zones

All times are in EDT time to prevent confusion due to time zone crossing. See the N762NC flight status page for this flight to view local times or setup timezone preferences in your user account.

Time Position Orientation Groundspeed Altitude Reporting Facility
EDT Latitude Longitude Course Direction KTS MPH feet Rate Location/Type
01:48PM 30.5608 -86.3906 344° North 288 331 9,300  Level Jacksonville Center
01:49PM 30.6322 -86.4558 322° Northwest 300 345 10,700 2,100 Climbing Jacksonville Center
01:50PM 30.5784 -86.5724 337° Northwest  Level FlightAware Approximate
01:50PM 30.7031 -86.5333 317° Northwest 320 368 13,500  Level Jacksonville Center
01:51PM 30.6602 -86.5968 337° Northwest  Level FlightAware Approximate
01:51PM 30.7825 -86.6042 323° Northwest 349 402 15,500  Level Jacksonville Center
01:52PM 30.7530 -86.6454 344° North  Level FlightAware Approximate
01:52PM 30.8742 -86.6078 358° North 318 366 17,700  Level Jacksonville Center
01:53PM 30.9678 -86.5461 29° Northeast 319 367 19,300 1,200 Climbing Jacksonville Center
01:54PM 31.0628 -86.5133 16° North 361 415 20,200 1,320 Climbing Jacksonville Center
01:55PM 31.1747 -86.4642 21° North 395 455 22,000 1,500 Climbing Jacksonville Center
01:57PM 31.3617 -86.3686 24° Northeast 451 519 24,300 1,260 Climbing Atlanta Center
01:58PM 31.4733 -86.3008 27° Northeast 437 503 25,500 1,200 Climbing Atlanta Center
01:59PM 31.5814 -86.2231 32° Northeast 442 509 26,700 660 Climbing Atlanta Center
02:00PM 31.7061 -86.1283 33° Northeast 456 525 26,900 -120 Climbing Atlanta Center
02:01PM 31.8317 -86.0972 12° North 470 541 26,500 -600 Descending Atlanta Center
02:02PM 31.9528 -86.0925 North 450 518 25,800 -840 Descending Atlanta Center
02:03PM 32.0644 -86.0436 20° North 433 498 24,900 -720 Descending Atlanta Center
02:04PM 32.1614 -85.9819 28° Northeast 412 474 24,400 -480 Descending Atlanta Center
02:05PM 32.2519 -85.9200 30° Northeast 389 448 24,000 -1,140 Descending Atlanta Center
02:06PM 32.3406 -85.8581 31° Northeast 370 426 22,200 -1,860 Descending Atlanta Center
02:07PM 32.4208 -85.7933 34° Northeast 359 413 20,400 -1,620 Descending Atlanta Center
02:08PM 32.4972 -85.7136 41° Northeast 354 407 19,000 -720 Descending Atlanta Center
02:09PM 32.5811 -85.6708 23° Northeast 330 380 19,000  Level Atlanta Center
02:10PM 32.6733 -85.6428 14° North 330 380 19,000  Level Atlanta Center
02:11PM 32.7475 -85.5675 40° Northeast 330 380 19,000  Level Atlanta Center
02:12PM 32.8214 -85.4897 41° Northeast 341 392 19,000 -720 Level Atlanta Center
02:13PM 32.8931 -85.4192 40° Northeast 341 392 17,600 -1,620 Descending Atlanta Center
02:14PM 32.9589 -85.3361 47° Northeast 341 392 15,800 -1,800 Descending Atlanta Center
02:15PM 33.0222 -85.2578 46° Northeast 329 379 14,000 -1,680 Descending Atlanta Center
02:16PM 33.0728 -85.1939 47° Northeast 307 353 12,500 -1,020 Descending Atlanta Center
02:17PM 33.1278 -85.1128 51° Northeast 300 345 12,000 -300 Descending Atlanta Center
02:18PM 33.1828 -85.0367 49° Northeast 300 345 12,000 -660 Level Atlanta Center
02:19PM 33.2417 -84.9703 43° Northeast 295 339 10,700 -1,800 Descending Atlanta Center
02:20PM 33.2967 -84.9011 46° Northeast 290 334 8,500 -2,100 Descending Atlanta Center
02:21PM 33.3617 -84.8347 40° Northeast 278 320 6,500 -1,800 Descending Atlanta Center
02:22PM 33.4303 -84.8628 341° North 233 268 4,900 -1,320 Descending Atlanta Center
02:23PM 33.5033 -84.8858 345° North 245 282 3,900 -480 Descending Atlanta Center
02:24PM 33.5681 -84.8692 12° North 238 274 4,000  Climbing Atlanta Center
02:25PM 33.6122 -84.8194 43° Northeast 220 253 4,000  Level Atlanta Center
02:26PM 33.6211 -84.7497 81° East 191 220 4,000 -240 Level Atlanta Center
02:28PM 33.6167 -84.6000 92° East 198 228 3,300 -540 Descending Atlanta TRACON
02:29PM 33.6167 -84.5333 90° East 180 207 2,300 -900 Descending Atlanta TRACON
02:30PM 33.6167 -84.4833 90° East 133 153 1,600 -720 Descending Atlanta TRACON
02:32PM 33.6367 -84.4279 40° Northeast  Level Estimated